| time (UTC) | temp F | wind direction | speed MPH | gust MPH | rain 1hr in | rain 24hr in | rain mn in | humidity % | barometer mb |
| 20260510170412 | 85 | 283 | 0.0 | 6.0 | 0.00 | 0.00 | 0.00 | 68 | 1016.4 |
| 20260510165907 | 85 | 107 | 2.0 | 3.0 | 0.00 | 0.00 | 0.00 | 68 | 1016.3 |
| 20260510165404 | 85 | 68 | 0.0 | 1.0 | 0.00 | 0.00 | 0.00 | 69 | 1016.4 |
| 20260510164901 | 85 | 108 | 1.0 | 9.0 | 0.00 | 0.00 | 0.00 | 68 | 1016.4 |
| 20260510164358 | 86 | 74 | 2.0 | 3.0 | 0.00 | 0.00 | 0.00 | 68 | 1016.3 |
| 20260510163853 | 84 | 83 | 0.0 | 2.0 | 0.00 | 0.00 | 0.00 | 69 | 1016.3 |
| 20260510163350 | 85 | 65 | 0.0 | 4.0 | 0.00 | 0.00 | 0.00 | 70 | 1016.4 |
| 20260510162849 | 84 | 320 | 1.0 | 4.0 | 0.00 | 0.00 | 0.00 | 69 | 1016.5 |
| 20260510162347 | 84 | 71 | 1.0 | 4.0 | 0.00 | 0.00 | 0.00 | 70 | 1016.6 |
| 20260510161842 | 84 | 82 | 1.0 | 1.0 | 0.00 | 0.00 | 0.00 | 71 | 1016.5 |
| 20260510161338 | 83 | 77 | 1.0 | 3.0 | 0.00 | 0.00 | 0.00 | 71 | 1016.6 |
| 20260510160836 | 83 | 90 | 1.0 | 3.0 | 0.00 | 0.00 | 0.00 | 72 | 1016.6 |
| 20260510160333 | 82 | 102 | 2.0 | 6.0 | 0.00 | 0.00 | 0.00 | 74 | 1016.8 |
| 20260510155832 | 82 | 136 | 1.0 | 4.0 | 0.00 | 0.00 | 0.00 | 73 | 1016.8 |
| 20260510155330 | 82 | 64 | 1.0 | 6.0 | 0.00 | 0.00 | 0.00 | 73 | 1016.7 |
| 20260510154825 | 82 | 99 | 2.0 | 3.0 | 0.00 | 0.00 | 0.00 | 72 | 1016.9 |
| 20260510154321 | 82 | 167 | 3.0 | 4.0 | 0.00 | 0.00 | 0.00 | 73 | 1016.7 |
| 20260510153815 | 82 | 115 | 2.0 | 7.0 | 0.00 | 0.00 | 0.00 | 75 | 1016.8 |
| 20260510153312 | 81 | 114 | 1.0 | 3.0 | 0.00 | 0.00 | 0.00 | 77 | 1016.6 |
| 20260510152808 | 80 | 112 | 0.0 | 4.0 | 0.00 | 0.00 | 0.00 | 76 | 1016.6 |
| 20260510152307 | 81 | 210 | 4.0 | 6.0 | 0.00 | 0.00 | 0.00 | 74 | 1016.6 |
| 20260510151802 | 81 | 96 | 3.0 | 4.0 | 0.00 | 0.00 | 0.00 | 75 | 1017.0 |
| 20260510151300 | 81 | 101 | 3.0 | 4.0 | 0.00 | 0.00 | 0.00 | 77 | 1017.0 |
| 20260510150755 | 81 | 112 | 2.0 | 4.0 | 0.00 | 0.00 | 0.00 | 77 | 1016.8 |
| 20260510150251 | 80 | 115 | 1.0 | 3.0 | 0.00 | 0.00 | 0.00 | 77 | 1016.9 |
| 20260510145747 | 80 | 108 | 3.0 | 7.0 | 0.00 | 0.00 | 0.00 | 78 | 1017.0 |
| 20260510145244 | 80 | 148 | 0.0 | 4.0 | 0.00 | 0.00 | 0.00 | 79 | 1016.8 |
| 20260510144740 | 80 | 105 | 0.0 | 3.0 | 0.00 | 0.00 | 0.00 | 78 | 1017.0 |
| 20260510144238 | 79 | 74 | 1.0 | 1.0 | 0.00 | 0.00 | 0.00 | 81 | 1016.8 |
| 20260510143731 | 78 | 138 | 2.0 | 4.0 | 0.00 | 0.00 | 0.00 | 82 | 1016.9 |
| 20260510143228 | 78 | 85 | 3.0 | 4.0 | 0.00 | 0.00 | 0.00 | 80 | 1016.8 |
| 20260510142719 | 78 | 92 | 2.0 | 2.0 | 0.00 | 0.00 | 0.00 | 81 | 1016.6 |
| 20260510142215 | 78 | 68 | 0.0 | 1.0 | 0.00 | 0.00 | 0.00 | 82 | 1016.8 |
| 20260510141713 | 78 | 101 | 2.0 | 3.0 | 0.00 | 0.00 | 0.00 | 82 | 1016.9 |
| 20260510141211 | 78 | 84 | 2.0 | 3.0 | 0.00 | 0.00 | 0.00 | 82 | 1017.1 |
| 20260510140707 | 78 | 103 | 1.0 | 3.0 | 0.00 | 0.00 | 0.00 | 82 | 1017.1 |
| 20260510140202 | 77 | 81 | 1.0 | 3.0 | 0.00 | 0.00 | 0.00 | 84 | 1017.2 |
| 20260510135656 | 77 | 68 | 0.0 | 2.0 | 0.00 | 0.00 | 0.00 | 84 | 1017.1 |
| 20260510135153 | 78 | 61 | 0.0 | 3.0 | 0.00 | 0.00 | 0.00 | 83 | 1017.0 |
| 20260510134650 | 77 | 86 | 1.0 | 2.0 | 0.00 | 0.00 | 0.00 | 85 | 1017.0 |
| 20260510134147 | 76 | 82 | 1.0 | 1.0 | 0.00 | 0.00 | 0.00 | 87 | 1016.9 |
| 20260510133644 | 75 | 59 | 0.0 | 1.0 | 0.00 | 0.00 | 0.00 | 90 | 1016.9 |
| 20260510133139 | 74 | 105 | 1.0 | 1.0 | 0.00 | 0.00 | 0.00 | 92 | 1016.9 |
| 20260510132635 | 73 | 83 | 1.0 | 3.0 | 0.00 | 0.00 | 0.00 | 93 | 1017.1 |
| 20260510132133 | 73 | 102 | 1.0 | 2.0 | 0.00 | 0.00 | 0.00 | 94 | 1016.8 |
| 20260510131630 | 73 | 80 | 0.0 | 0.0 | 0.00 | 0.00 | 0.00 | 95 | 1016.9 |
| 20260510131127 | 72 | 57 | 0.0 | 1.0 | 0.00 | 0.00 | 0.00 | 95 | 1016.8 |
| 20260510130624 | 72 | 69 | 0.0 | 1.0 | 0.00 | 0.00 | 0.00 | 96 | 1016.8 |
| 20260510130122 | 72 | 74 | 0.0 | 1.0 | 0.00 | 0.00 | 0.00 | 96 | 1016.6 |
| 20260510125618 | 72 | 65 | 0.0 | 1.0 | 0.00 | 0.00 | 0.00 | 96 | 1016.7 |
| 20260510125114 | 72 | 66 | 0.0 | 0.0 | 0.00 | 0.00 | 0.00 | 97 | 1016.7 |
| 20260510124611 | 72 | 64 | 0.0 | 1.0 | 0.00 | 0.00 | 0.00 | 97 | 1016.4 |
| 20260510124108 | 71 | 67 | 0.0 | 0.0 | 0.00 | 0.00 | 0.00 | 97 | 1016.2 |
| 20260510123603 | 71 | 80 | 0.0 | 1.0 | 0.00 | 0.00 | 0.00 | 97 | 1015.8 |
| 20260510123059 | 71 | 68 | 0.0 | 0.0 | 0.00 | 0.00 | 0.00 | 97 | 1015.9 |
| 20260510122555 | 71 | 66 | 0.0 | 0.0 | 0.00 | 0.00 | 0.00 | 97 | 1015.7 |
| 20260510122051 | 71 | 54 | 0.0 | 1.0 | 0.00 | 0.00 | 0.00 | 97 | 1015.6 |
| 20260510121549 | 70 | 82 | 0.0 | 1.0 | 0.00 | 0.00 | 0.00 | 97 | 1015.3 |
| 20260510121046 | 70 | 74 | 0.0 | 1.0 | 0.00 | 0.00 | 0.00 | 97 | 1015.3 |
| 20260510120544 | 70 | 82 | 1.0 | 1.0 | 0.00 | 0.00 | 0.00 | 97 | 1014.9 |
| 20260510120039 | 70 | 86 | 0.0 | 2.0 | 0.00 | 0.00 | 0.00 | 97 | 1015.2 |
| 20260510115536 | 70 | 71 | 0.0 | 1.0 | 0.00 | 0.00 | 0.00 | 97 | 1014.9 |
| 20260510115033 | 70 | 69 | 0.0 | 1.0 | 0.00 | 0.00 | 0.00 | 97 | 1014.9 |
| 20260510114528 | 70 | 78 | 0.0 | 1.0 | 0.00 | 0.00 | 0.00 | 97 | 1014.7 |
| 20260510114025 | 71 | 74 | 0.0 | 1.0 | 0.00 | 0.00 | 0.00 | 97 | 1014.6 |
| 20260510113520 | 71 | 74 | 0.0 | 1.0 | 0.00 | 0.00 | 0.00 | 97 | 1014.5 |
| 20260510113018 | 71 | 90 | 2.0 | 2.0 | 0.00 | 0.00 | 0.00 | 97 | 1014.2 |
| 20260510112514 | 71 | 72 | 0.0 | 1.0 | 0.00 | 0.00 | 0.00 | 97 | 1014.1 |
| 20260510112011 | 71 | 73 | 0.0 | 1.0 | 0.00 | 0.00 | 0.00 | 97 | 1014.1 |
| 20260510111508 | 71 | 321 | 0.0 | 1.0 | 0.00 | 0.00 | 0.00 | 97 | 1014.2 |
| 20260510111003 | 71 | 87 | 0.0 | 3.0 | 0.00 | 0.00 | 0.00 | 97 | 1014.0 |
| 20260510110500 | 71 | 89 | 1.0 | 3.0 | 0.00 | 0.00 | 0.00 | 96 | 1013.9 |
| 20260510105956 | 70 | 77 | 0.0 | 0.0 | 0.00 | 0.00 | 0.00 | 96 | 1013.9 |
| 20260510105451 | 70 | 73 | 0.0 | 1.0 | 0.00 | 0.00 | 0.00 | 96 | 1014.0 |
| 20260510104947 | 70 | 70 | 0.0 | 0.0 | 0.00 | 0.00 | 0.00 | 96 | 1014.0 |
| 20260510104443 | 70 | 64 | 0.0 | 1.0 | 0.00 | 0.00 | 0.00 | 96 | 1014.0 |
| 20260510103940 | 70 | 93 | 0.0 | 1.0 | 0.00 | 0.00 | 0.00 | 96 | 1013.7 |
| 20260510103438 | 71 | 71 | 0.0 | 3.0 | 0.00 | 0.00 | 0.00 | 96 | 1013.5 |
| 20260510102937 | 71 | 87 | 0.0 | 0.0 | 0.00 | 0.00 | 0.00 | 95 | 1013.6 |
| 20260510102433 | 71 | 74 | 0.0 | 1.0 | 0.00 | 0.00 | 0.00 | 95 | 1013.4 |
| 20260510101930 | 71 | 87 | 0.0 | 4.0 | 0.00 | 0.00 | 0.00 | 95 | 1013.2 |
| 20260510101428 | 71 | 121 | 1.0 | 2.0 | 0.00 | 0.00 | 0.00 | 95 | 1013.0 |
| 20260510100926 | 71 | 86 | 1.0 | 2.0 | 0.00 | 0.00 | 0.00 | 95 | 1013.1 |
| 20260510100422 | 71 | 73 | 2.0 | 4.0 | 0.00 | 0.00 | 0.00 | 95 | 1012.9 |
| 20260510095919 | 71 | 124 | 1.0 | 2.0 | 0.00 | 0.00 | 0.00 | 94 | 1012.7 |
| 20260510095414 | 71 | 81 | 2.0 | 2.0 | 0.00 | 0.00 | 0.00 | 94 | 1012.7 |
| 20260510094913 | 71 | 68 | 1.0 | 3.0 | 0.00 | 0.00 | 0.00 | 94 | 1012.8 |
| 20260510094408 | 71 | 150 | 3.0 | 4.0 | 0.00 | 0.00 | 0.00 | 94 | 1012.9 |
| 20260510093905 | 71 | 82 | 0.0 | 1.0 | 0.00 | 0.00 | 0.00 | 93 | 1013.0 |
| 20260510093400 | 71 | 66 | 0.0 | 1.0 | 0.00 | 0.00 | 0.00 | 93 | 1012.6 |
| 20260510092857 | 71 | 81 | 0.0 | 1.0 | 0.00 | 0.00 | 0.00 | 93 | 1012.7 |
| 20260510092354 | 71 | 77 | 0.0 | 1.0 | 0.00 | 0.00 | 0.00 | 93 | 1012.8 |
| 20260510091849 | 71 | 76 | 0.0 | 1.0 | 0.00 | 0.00 | 0.00 | 93 | 1012.7 |
| 20260510091346 | 71 | 71 | 0.0 | 2.0 | 0.00 | 0.00 | 0.00 | 93 | 1012.7 |
| 20260510090843 | 71 | 82 | 1.0 | 1.0 | 0.00 | 0.00 | 0.00 | 92 | 1012.6 |
| 20260510090340 | 71 | 72 | 0.0 | 1.0 | 0.00 | 0.00 | 0.00 | 92 | 1012.6 |
| 20260510085836 | 71 | 80 | 0.0 | 1.0 | 0.00 | 0.00 | 0.00 | 92 | 1012.6 |
| 20260510085335 | 71 | 77 | 0.0 | 2.0 | 0.00 | 0.00 | 0.00 | 92 | 1012.8 |
| 20260510084832 | 71 | 135 | 2.0 | 3.0 | 0.00 | 0.00 | 0.00 | 91 | 1012.7 |
| 20260510084329 | 71 | 71 | 0.0 | 0.0 | 0.00 | 0.00 | 0.00 | 91 | 1012.6 |
| 20260510083826 | 71 | 81 | 0.0 | 1.0 | 0.00 | 0.00 | 0.00 | 91 | 1012.5 |
| 20260510083322 | 72 | 73 | 0.0 | 1.0 | 0.00 | 0.00 | 0.00 | 90 | 1012.6 |
| 20260510082818 | 72 | 70 | 0.0 | 2.0 | 0.00 | 0.00 | 0.00 | 90 | 1012.7 |
| 20260510082316 | 72 | 68 | 0.0 | 2.0 | 0.00 | 0.00 | 0.00 | 90 | 1012.8 |
| 20260510081814 | 72 | 98 | 0.0 | 2.0 | 0.00 | 0.00 | 0.00 | 90 | 1012.7 |
| 20260510081310 | 72 | 96 | 1.0 | 1.0 | 0.00 | 0.00 | 0.00 | 90 | 1012.8 |
| 20260510080806 | 72 | 69 | 0.0 | 0.0 | 0.00 | 0.00 | 0.00 | 91 | 1012.8 |
| 20260510080301 | 72 | 73 | 0.0 | 1.0 | 0.00 | 0.00 | 0.00 | 91 | 1012.6 |
| 20260510075759 | 72 | 67 | 0.0 | 2.0 | 0.00 | 0.00 | 0.00 | 91 | 1012.9 |
| 20260510075256 | 72 | 88 | 1.0 | 4.0 | 0.00 | 0.00 | 0.00 | 91 | 1012.8 |
| 20260510074753 | 72 | 68 | 1.0 | 3.0 | 0.00 | 0.00 | 0.00 | 92 | 1012.9 |
| 20260510074249 | 72 | 145 | 2.0 | 3.0 | 0.00 | 0.00 | 0.00 | 92 | 1012.8 |
| 20260510073745 | 73 | 20 | 1.0 | 3.0 | 0.00 | 0.00 | 0.00 | 92 | 1012.8 |
| 20260510073242 | 73 | 85 | 1.0 | 1.0 | 0.00 | 0.00 | 0.00 | 92 | 1012.6 |
| 20260510072737 | 73 | 83 | 1.0 | 2.0 | 0.00 | 0.00 | 0.00 | 92 | 1012.8 |
| 20260510072234 | 73 | 73 | 0.0 | 3.0 | 0.00 | 0.00 | 0.00 | 92 | 1012.8 |
| 20260510071731 | 73 | 148 | 2.0 | 3.0 | 0.00 | 0.00 | 0.00 | 92 | 1012.9 |
| 20260510071227 | 73 | 74 | 2.0 | 3.0 | 0.00 | 0.00 | 0.00 | 92 | 1012.9 |
| 20260510070726 | 73 | 104 | 2.0 | 4.0 | 0.00 | 0.00 | 0.00 | 92 | 1012.8 |
| 20260510070223 | 73 | 90 | 2.0 | 4.0 | 0.00 | 0.00 | 0.00 | 91 | 1012.8 |
| 20260510065717 | 73 | 76 | 1.0 | 3.0 | 0.00 | 0.00 | 0.00 | 91 | 1013.0 |
| 20260510065214 | 73 | 90 | 2.0 | 3.0 | 0.00 | 0.00 | 0.00 | 90 | 1012.9 |
| 20260510064711 | 74 | 83 | 1.0 | 3.0 | 0.00 | 0.00 | 0.00 | 90 | 1012.9 |
| 20260510064209 | 74 | 78 | 1.0 | 3.0 | 0.00 | 0.00 | 0.00 | 90 | 1012.9 |
| 20260510063705 | 74 | 120 | 3.0 | 7.0 | 0.00 | 0.00 | 0.00 | 89 | 1012.8 |
| 20260510063201 | 74 | 73 | 1.0 | 6.0 | 0.00 | 0.00 | 0.00 | 89 | 1012.9 |
| 20260510062657 | 74 | 87 | 2.0 | 6.0 | 0.00 | 0.00 | 0.00 | 89 | 1013.0 |
| 20260510062153 | 74 | 105 | 2.0 | 3.0 | 0.00 | 0.00 | 0.00 | 88 | 1013.1 |
| 20260510061648 | 74 | 86 | 2.0 | 4.0 | 0.00 | 0.00 | 0.00 | 88 | 1013.2 |
| 20260510061146 | 74 | 117 | 1.0 | 7.0 | 0.00 | 0.00 | 0.00 | 87 | 1013.0 |
| 20260510060642 | 74 | 87 | 2.0 | 3.0 | 0.00 | 0.00 | 0.00 | 87 | 1013.0 |
| 20260510060139 | 74 | 76 | 2.0 | 3.0 | 0.00 | 0.00 | 0.00 | 86 | 1013.0 |
| 20260510055635 | 74 | 69 | 1.0 | 3.0 | 0.00 | 0.00 | 0.00 | 86 | 1013.1 |
| 20260510055134 | 75 | 140 | 4.0 | 6.0 | 0.00 | 0.00 | 0.00 | 85 | 1013.2 |
| 20260510054629 | 75 | 146 | 1.0 | 6.0 | 0.00 | 0.00 | 0.00 | 84 | 1013.0 |
| 20260510054125 | 75 | 69 | 1.0 | 4.0 | 0.00 | 0.00 | 0.00 | 83 | 1013.1 |
| 20260510053624 | 75 | 96 | 2.0 | 3.0 | 0.00 | 0.00 | 0.00 | 83 | 1013.1 |
| 20260510053121 | 75 | 102 | 2.0 | 3.0 | 0.00 | 0.00 | 0.00 | 82 | 1013.2 |
| 20260510052617 | 75 | 104 | 3.0 | 6.0 | 0.00 | 0.00 | 0.00 | 81 | 1013.0 |
| 20260510052114 | 75 | 79 | 1.0 | 3.0 | 0.00 | 0.00 | 0.00 | 80 | 1013.1 |
| 20260510051609 | 75 | 86 | 2.0 | 3.0 | 0.00 | 0.00 | 0.00 | 79 | 1012.9 |
| 20260510051106 | 76 | 65 | 2.0 | 4.0 | 0.00 | 0.00 | 0.00 | 78 | 1013.2 |
| 20260510050603 | 76 | 77 | 1.0 | 6.0 | 0.00 | 0.00 | 0.00 | 78 | 1013.4 |
| 20260510050100 | 76 | 116 | 2.0 | 4.0 | 0.00 | 0.00 | 0.00 | 76 | 1013.4 |
| 20260510045558 | 77 | 97 | 2.0 | 2.0 | 0.00 | 0.00 | 0.00 | 75 | 1013.1 |
| 20260510045053 | 77 | 148 | 2.0 | 3.0 | 0.00 | 0.00 | 0.00 | 74 | 1013.0 |
| 20260510044550 | 77 | 121 | 2.0 | 3.0 | 0.00 | 0.00 | 0.00 | 73 | 1013.2 |
| 20260510044048 | 78 | 96 | 2.0 | 6.0 | 0.00 | 0.00 | 0.00 | 73 | 1013.4 |
| 20260510043543 | 78 | 108 | 1.0 | 7.0 | 0.00 | 0.00 | 0.00 | 72 | 1013.2 |
| 20260510043039 | 78 | 77 | 1.0 | 4.0 | 0.00 | 0.00 | 0.00 | 71 | 1013.1 |
| 20260510042538 | 78 | 120 | 2.0 | 4.0 | 0.00 | 0.00 | 0.00 | 71 | 1013.3 |
| 20260510042033 | 78 | 80 | 2.0 | 4.0 | 0.00 | 0.00 | 0.00 | 75 | 1013.4 |
| 20260510041531 | 79 | 88 | 2.0 | 3.0 | 0.00 | 0.00 | 0.00 | 76 | 1013.3 |
| 20260510041029 | 79 | 98 | 1.0 | 4.0 | 0.00 | 0.00 | 0.00 | 77 | 1013.3 |
| 20260510040525 | 78 | 89 | 0.0 | 2.0 | 0.00 | 0.00 | 0.00 | 77 | 1012.9 |
| 20260510040021 | 78 | 72 | 0.0 | 2.0 | 0.00 | 0.00 | 0.00 | 76 | 1013.0 |
| 20260510035518 | 78 | 78 | 0.0 | 1.0 | 0.00 | 0.00 | 0.00 | 77 | 1013.0 |
| 20260510035016 | 77 | 73 | 0.0 | 0.0 | 0.00 | 0.00 | 0.00 | 77 | 1012.9 |
| 20260510034516 | 77 | 68 | 0.0 | 1.0 | 0.00 | 0.00 | 0.00 | 77 | 1012.8 |
| 20260510034012 | 77 | 69 | 0.0 | 0.0 | 0.00 | 0.00 | 0.00 | 77 | 1012.7 |
| 20260510033508 | 77 | 67 | 0.0 | 0.0 | 0.00 | 0.00 | 0.00 | 76 | 1012.7 |
| 20260510033006 | 77 | 67 | 0.0 | 0.0 | 0.00 | 0.00 | 0.00 | 75 | 1012.6 |
| 20260510032503 | 78 | 67 | 0.0 | 0.0 | 0.00 | 0.00 | 0.00 | 74 | 1012.6 |
| 20260510032002 | 78 | 69 | 0.0 | 0.0 | 0.00 | 0.00 | 0.00 | 74 | 1012.4 |
| 20260510031458 | 78 | 73 | 0.0 | 1.0 | 0.00 | 0.00 | 0.00 | 75 | 1012.4 |
| 20260510030954 | 78 | 68 | 0.0 | 0.0 | 0.00 | 0.00 | 0.00 | 74 | 1012.3 |
| 20260510030449 | 78 | 72 | 0.0 | 1.0 | 0.00 | 0.00 | 0.00 | 74 | 1012.2 |
| 20260510025947 | 78 | 69 | 0.0 | 0.0 | 0.00 | 0.00 | 0.00 | 74 | 1012.0 |
| 20260510025444 | 78 | 72 | 0.0 | 1.0 | 0.00 | 0.00 | 0.00 | 76 | 1012.1 |
| 20260510024942 | 78 | 71 | 0.0 | 0.0 | 0.00 | 0.00 | 0.00 | 77 | 1012.0 |
| 20260510024438 | 78 | 70 | 0.0 | 0.0 | 0.00 | 0.00 | 0.00 | 76 | 1012.0 |
| 20260510023934 | 78 | 69 | 0.0 | 0.0 | 0.00 | 0.00 | 0.00 | 75 | 1012.0 |
| 20260510023431 | 78 | 64 | 0.0 | 0.0 | 0.00 | 0.00 | 0.00 | 74 | 1012.0 |
| 20260510022928 | 78 | 68 | 0.0 | 1.0 | 0.00 | 0.00 | 0.00 | 73 | 1011.9 |
| 20260510022427 | 79 | 69 | 0.0 | 0.0 | 0.00 | 0.00 | 0.00 | 71 | 1011.7 |
| 20260510021926 | 79 | 69 | 0.0 | 0.0 | 0.00 | 0.00 | 0.00 | 71 | 1011.7 |
| 20260510021424 | 80 | 69 | 0.0 | 1.0 | 0.00 | 0.00 | 0.00 | 70 | 1011.7 |
| 20260510020921 | 79 | 69 | 0.0 | 0.0 | 0.00 | 0.00 | 0.00 | 71 | 1011.6 |
| 20260510020421 | 79 | 72 | 0.0 | 0.0 | 0.00 | 0.00 | 0.00 | 71 | 1011.6 |
| 20260510015917 | 79 | 69 | 0.0 | 0.0 | 0.00 | 0.00 | 0.00 | 71 | 1011.7 |
| 20260510015412 | 79 | 69 | 0.0 | 0.0 | 0.00 | 0.00 | 0.00 | 71 | 1011.3 |
| 20260510014908 | 80 | 65 | 0.0 | 0.0 | 0.00 | 0.00 | 0.00 | 71 | 1011.3 |
| 20260510014406 | 79 | 72 | 0.0 | 1.0 | 0.00 | 0.00 | 0.00 | 71 | 1011.3 |
| 20260510013902 | 80 | 68 | 0.0 | 0.0 | 0.00 | 0.00 | 0.00 | 71 | 1011.2 |
| 20260510013357 | 80 | 69 | 0.0 | 0.0 | 0.00 | 0.00 | 0.00 | 69 | 1011.1 |
| 20260510012852 | 81 | 67 | 0.0 | 0.0 | 0.00 | 0.00 | 0.00 | 68 | 1011.0 |
| 20260510012347 | 81 | 72 | 0.0 | 0.0 | 0.00 | 0.00 | 0.00 | 67 | 1011.0 |
| 20260510011842 | 81 | 69 | 0.0 | 0.0 | 0.00 | 0.00 | 0.00 | 67 | 1010.9 |
| 20260510011338 | 82 | 72 | 0.0 | 1.0 | 0.00 | 0.00 | 0.00 | 68 | 1010.8 |
| 20260510010834 | 82 | 75 | 0.0 | 1.0 | 0.00 | 0.00 | 0.00 | 71 | 1010.8 |
| 20260510010332 | 83 | 71 | 0.0 | 0.0 | 0.00 | 0.00 | 0.00 | 72 | 1010.8 |
| 20260510005828 | 84 | 72 | 0.0 | 0.0 | 0.00 | 0.00 | 0.00 | 70 | 1010.7 |
| 20260510005324 | 84 | 68 | 0.0 | 0.0 | 0.00 | 0.00 | 0.00 | 69 | 1010.5 |
| 20260510004822 | 85 | 70 | 0.0 | 0.0 | 0.00 | 0.00 | 0.00 | 67 | 1010.5 |
| 20260510004320 | 86 | 67 | 0.0 | 0.0 | 0.00 | 0.00 | 0.00 | 67 | 1010.4 |
| 20260510003817 | 88 | 67 | 0.0 | 0.0 | 0.00 | 0.00 | 0.00 | 64 | 1010.4 |
| 20260510003314 | 88 | 64 | 0.0 | 0.0 | 0.00 | 0.00 | 0.00 | 63 | 1010.2 |
| 20260510002813 | 88 | 68 | 0.0 | 0.0 | 0.00 | 0.00 | 0.00 | 63 | 1010.3 |
| 20260510002310 | 88 | 73 | 0.0 | 0.0 | 0.00 | 0.00 | 0.00 | 63 | 1010.4 |
| 20260510001806 | 88 | 66 | 0.0 | 0.0 | 0.00 | 0.00 | 0.00 | 63 | 1010.4 |
| 20260510001305 | 87 | 65 | 0.0 | 1.0 | 0.00 | 0.00 | 0.00 | 63 | 1010.1 |
| 20260510000800 | 87 | 74 | 0.0 | 1.0 | 0.00 | 0.00 | 0.00 | 62 | 1010.2 |
| 20260510000258 | 88 | 90 | 1.0 | 1.0 | 0.00 | 0.00 | 0.00 | 62 | 1010.3 |
| 20260509235755 | 88 | 72 | 0.0 | 1.0 | 0.00 | 0.00 | 0.00 | 61 | 1010.2 |
| 20260509235251 | 88 | 69 | 0.0 | 0.0 | 0.00 | 0.00 | 0.00 | 59 | 1010.2 |
| 20260509234747 | 89 | 66 | 0.0 | 1.0 | 0.00 | 0.00 | 0.00 | 60 | 1010.3 |
| 20260509234244 | 89 | 42 | 0.0 | 1.0 | 0.00 | 0.00 | 0.00 | 57 | 1010.2 |
| 20260509233743 | 90 | 71 | 0.0 | 1.0 | 0.00 | 0.00 | 0.00 | 56 | 1010.2 |
| 20260509233240 | 91 | 52 | 0.0 | 1.0 | 0.00 | 0.00 | 0.00 | 56 | 1010.3 |
| 20260509232736 | 92 | 53 | 0.0 | 1.0 | 0.00 | 0.00 | 0.00 | 53 | 1010.3 |
| 20260509232233 | 91 | 67 | 0.0 | 1.0 | 0.00 | 0.00 | 0.00 | 58 | 1010.3 |
| 20260509231729 | 92 | 64 | 0.0 | 1.0 | 0.00 | 0.00 | 0.00 | 55 | 1010.0 |
| 20260509231227 | 91 | 63 | 0.0 | 0.0 | 0.00 | 0.00 | 0.00 | 53 | 1010.2 |
| 20260509230724 | 90 | 61 | 0.0 | 1.0 | 0.00 | 0.00 | 0.00 | 55 | 1010.1 |
| 20260509230221 | 90 | 48 | 1.0 | 3.0 | 0.00 | 0.00 | 0.00 | 56 | 1010.1 |
| 20260509225716 | 91 | 60 | 1.0 | 2.0 | 0.00 | 0.00 | 0.00 | 56 | 1010.1 |
| 20260509225212 | 92 | 66 | 0.0 | 2.0 | 0.00 | 0.00 | 0.00 | 56 | 1009.8 |
| 20260509224708 | 91 | 57 | 0.0 | 0.0 | 0.00 | 0.00 | 0.00 | 56 | 1009.9 |
| 20260509224205 | 91 | 70 | 0.0 | 0.0 | 0.00 | 0.00 | 0.00 | 56 | 1009.9 |
| 20260509223702 | 91 | 65 | 0.0 | 1.0 | 0.00 | 0.00 | 0.00 | 58 | 1009.9 |
| 20260509223159 | 90 | 63 | 0.0 | 1.0 | 0.00 | 0.00 | 0.00 | 61 | 1009.8 |
| 20260509222656 | 90 | 71 | 1.0 | 2.0 | 0.00 | 0.00 | 0.00 | 61 | 1009.7 |
| 20260509222152 | 89 | 64 | 1.0 | 1.0 | 0.00 | 0.00 | 0.00 | 62 | 1009.8 |
| 20260509221647 | 87 | 61 | 0.0 | 0.0 | 0.00 | 0.00 | 0.00 | 64 | 1009.5 |
| 20260509221143 | 87 | 65 | 0.0 | 0.0 | 0.00 | 0.00 | 0.00 | 67 | 1009.7 |
| 20260509220639 | 87 | 62 | 0.0 | 0.0 | 0.00 | 0.00 | 0.00 | 66 | 1009.7 |
| 20260509220136 | 87 | 63 | 0.0 | 0.0 | 0.00 | 0.00 | 0.00 | 68 | 1009.7 |
| 20260509215632 | 87 | 64 | 0.0 | 0.0 | 0.00 | 0.00 | 0.00 | 67 | 1009.9 |
| 20260509215129 | 86 | 63 | 0.0 | 0.0 | 0.00 | 0.00 | 0.00 | 66 | 1010.0 |
| 20260509214626 | 86 | 51 | 0.0 | 0.0 | 0.00 | 0.00 | 0.00 | 67 | 1010.0 |
| 20260509214122 | 86 | 68 | 0.0 | 1.0 | 0.00 | 0.00 | 0.00 | 65 | 1010.0 |
| 20260509213619 | 86 | 53 | 0.0 | 0.0 | 0.00 | 0.00 | 0.00 | 64 | 1010.2 |
| 20260509213115 | 86 | 60 | 0.0 | 1.0 | 0.00 | 0.00 | 0.00 | 63 | 1010.4 |
| 20260509212613 | 87 | 47 | 0.0 | 1.0 | 0.00 | 0.00 | 0.00 | 63 | 1010.2 |
| 20260509212110 | 88 | 56 | 0.0 | 0.0 | 0.00 | 0.00 | 0.00 | 62 | 1010.5 |
| 20260509211605 | 88 | 67 | 0.0 | 1.0 | 0.00 | 0.00 | 0.00 | 63 | 1010.3 |
| 20260509211102 | 89 | 50 | 2.0 | 2.0 | 0.00 | 0.00 | 0.00 | 62 | 1010.3 |
| 20260509210559 | 90 | 91 | 1.0 | 2.0 | 0.00 | 0.00 | 0.00 | 60 | 1010.4 |
| 20260509210056 | 90 | 67 | 1.0 | 1.0 | 0.00 | 0.00 | 0.00 | 62 | 1010.2 |
| 20260509205555 | 89 | 68 | 0.0 | 1.0 | 0.00 | 0.00 | 0.00 | 62 | 1010.2 |
| 20260509205051 | 90 | 44 | 0.0 | 1.0 | 0.00 | 0.00 | 0.00 | 61 | 1010.3 |
| 20260509204548 | 90 | 49 | 1.0 | 1.0 | 0.00 | 0.00 | 0.00 | 58 | 1010.2 |
| 20260509204044 | 90 | 60 | 0.0 | 1.0 | 0.00 | 0.00 | 0.00 | 60 | 1010.3 |
| 20260509203539 | 90 | 54 | 0.0 | 1.0 | 0.00 | 0.00 | 0.00 | 59 | 1010.7 |
| 20260509203038 | 91 | 58 | 0.0 | 1.0 | 0.00 | 0.00 | 0.00 | 57 | 1011.0 |
| 20260509202533 | 91 | 59 | 0.0 | 1.0 | 0.00 | 0.00 | 0.00 | 57 | 1010.8 |
| 20260509202028 | 91 | 24 | 0.0 | 1.0 | 0.00 | 0.00 | 0.00 | 58 | 1010.9 |
| 20260509201523 | 91 | 51 | 0.0 | 1.0 | 0.00 | 0.00 | 0.00 | 61 | 1010.9 |
| 20260509201021 | 90 | 52 | 0.0 | 1.0 | 0.00 | 0.00 | 0.00 | 57 | 1011.0 |
| 20260509200516 | 91 | 67 | 1.0 | 1.0 | 0.00 | 0.00 | 0.00 | 59 | 1011.0 |
| 20260509200012 | 90 | 67 | 0.0 | 0.0 | 0.00 | 0.00 | 0.00 | 62 | 1011.1 |
| 20260509195502 | 90 | 24 | 2.0 | 3.0 | 0.00 | 0.00 | 0.00 | 60 | 1011.1 |
| 20260509195001 | 89 | 65 | 0.0 | 1.0 | 0.00 | 0.00 | 0.00 | 62 | 1011.2 |
| 20260509194457 | 89 | 32 | 1.0 | 2.0 | 0.00 | 0.00 | 0.00 | 64 | 1011.1 |
| 20260509193954 | 89 | 65 | 0.0 | 0.0 | 0.00 | 0.00 | 0.00 | 62 | 1011.2 |
| 20260509193454 | 89 | 85 | 0.0 | 1.0 | 0.00 | 0.00 | 0.00 | 61 | 1011.4 |
| 20260509192950 | 89 | 57 | 0.0 | 0.0 | 0.00 | 0.00 | 0.00 | 62 | 1011.2 |
| 20260509192447 | 89 | 49 | 1.0 | 1.0 | 0.00 | 0.00 | 0.00 | 62 | 1011.4 |
| 20260509191942 | 89 | 65 | 0.0 | 1.0 | 0.00 | 0.00 | 0.00 | 67 | 1011.5 |
| 20260509191438 | 88 | 62 | 0.0 | 1.0 | 0.00 | 0.00 | 0.00 | 62 | 1011.5 |
| 20260509190934 | 89 | 57 | 1.0 | 1.0 | 0.00 | 0.00 | 0.00 | 64 | 1011.5 |
| 20260509190431 | 89 | 86 | 0.0 | 1.0 | 0.00 | 0.00 | 0.00 | 62 | 1011.7 |
| 20260509185929 | 89 | 72 | 0.0 | 1.0 | 0.00 | 0.00 | 0.00 | 66 | 1011.5 |
| 20260509185426 | 89 | 57 | 0.0 | 2.0 | 0.00 | 0.00 | 0.00 | 65 | 1011.9 |
| 20260509184922 | 89 | 54 | 0.0 | 0.0 | 0.00 | 0.00 | 0.00 | 68 | 1011.8 |
| 20260509184420 | 87 | 57 | 1.0 | 1.0 | 0.00 | 0.00 | 0.00 | 65 | 1012.0 |
| 20260509183917 | 88 | 159 | 1.0 | 2.0 | 0.00 | 0.00 | 0.00 | 68 | 1012.0 |
| 20260509183411 | 87 | 60 | 0.0 | 1.0 | 0.00 | 0.00 | 0.00 | 71 | 1012.1 |
| 20260509182908 | 86 | 68 | 0.0 | 1.0 | 0.00 | 0.00 | 0.00 | 70 | 1012.1 |
| 20260509182404 | 87 | 56 | 0.0 | 1.0 | 0.00 | 0.00 | 0.00 | 70 | 1012.1 |
| 20260509181902 | 87 | 62 | 1.0 | 1.0 | 0.00 | 0.00 | 0.00 | 68 | 1012.1 |
| 20260509181359 | 87 | 54 | 0.0 | 0.0 | 0.00 | 0.00 | 0.00 | 70 | 1012.4 |
| 20260509180856 | 87 | 66 | 0.0 | 1.0 | 0.00 | 0.00 | 0.00 | 70 | 1012.4 |
| 20260509180352 | 86 | 58 | 0.0 | 1.0 | 0.00 | 0.00 | 0.00 | 71 | 1012.4 |
| 20260509175849 | 86 | 64 | 0.0 | 2.0 | 0.00 | 0.00 | 0.00 | 70 | 1012.4 |
| 20260509175345 | 86 | 111 | 1.0 | 2.0 | 0.00 | 0.00 | 0.00 | 70 | 1012.6 |
| 20260509174841 | 86 | 67 | 1.0 | 1.0 | 0.00 | 0.00 | 0.00 | 73 | 1012.8 |
| 20260509174337 | 85 | 54 | 0.0 | 1.0 | 0.00 | 0.00 | 0.00 | 77 | 1012.7 |
| 20260509173833 | 84 | 97 | 0.0 | 1.0 | 0.00 | 0.00 | 0.00 | 76 | 1012.8 |
| 20260509173329 | 82 | 84 | 0.0 | 1.0 | 0.00 | 0.00 | 0.00 | 82 | 1013.1 |
| 20260509172825 | 81 | 66 | 0.0 | 0.0 | 0.00 | 0.00 | 0.00 | 82 | 1013.0 |
| 20260509172322 | 80 | 69 | 0.0 | 0.0 | 0.00 | 0.00 | 0.00 | 82 | 1013.1 |
| 20260509171818 | 81 | 77 | 0.0 | 0.0 | 0.00 | 0.00 | 0.00 | 82 | 1013.0 |
| 20260509171314 | 81 | 70 | 0.0 | 0.0 | 0.00 | 0.00 | 0.00 | 83 | 1013.0 |
| 20260509170810 | 80 | 56 | 0.0 | 1.0 | 0.00 | 0.00 | 0.00 | 82 | 1013.0 |